Regional Weather Roundup
Issued by NWS Boston, MA

Current Version | Previous Version | Text Only | Print | Product List | Glossary Off
Versions: 1 2 3 4 5 6 7 8 9 10 11 12 13 14 15 16 17 18 19 20 21 22 23 24 25 26 27 28
000 ASUS41 KBOX 251110 RWRBOX REGIONAL WEATHER ROUNDUP NATIONAL WEATHER SERVICE TAUNTON MA 700 AM EDT MON SEP 25 2017 NOTE: "FAIR" INDICATES FEW OR NO CLOUDS BELOW 12,000 FEET WITH NO SIGNIFICANT WEATHER AND/OR OBSTRUCTIONS TO VISIBILITY. MAZALL-251200- EASTERN MASSACHUSETTS CITY SKY/WX TMP DP RH WIND PRES REMARKS BOSTON PTCLDY 65 64 97 CALM 30.07R BEVERLY CLEAR 61 60 97 CALM 30.06R LAWRENCE CLEAR 67 64 90 CALM 30.09R BEDFORD CLEAR 62 59 90 CALM 30.06R FOG BLUE HILL N/A 68 65 90 N5 30.07R NORWOOD CLEAR 60 59 96 CALM 30.06R MARSHFIELD CLEAR 59 59 100 CALM 30.06R PLYMOUTH CLEAR 61 59 93 CALM 30.07R TAUNTON CLEAR 58 57 97 CALM 30.07R FOG NEW BEDFORD CLEAR 59 58 96 CALM 30.05R $$ MAZALL-251200- CAPE COD AND THE ISLANDS CITY SKY/WX TMP DP RH WIND PRES REMARKS FALMOUTH FOG 61 61 100 CALM 30.08R VSB<1/4 HYANNIS FOG 61 61 100 CALM 30.06R VSB<1/4 CHATHAM FOG 62 62 100 E3 30.08R VSB 1/4 PROVINCETOWN CLEAR 63 63 100 CALM 30.07R FOG NANTUCKET FOG 61 61 100 N8 30.06S VSB 1/4 MARTHAS VNYRD CLEAR 59 58 96 CALM 30.06F FOG $$ MAZALL-251200- CENTRAL AND WESTERN MASSACHUSETTS CITY SKY/WX TMP DP RH WIND PRES REMARKS WORCESTER CLEAR 72 64 76 N7 30.10R FITCHBURG CLEAR 67 65 93 CALM 30.08R ORANGE CLEAR 61 61 100 CALM 30.09R FOG SPRINGFIELD CLEAR 61 60 97 CALM 30.06R WESTFIELD CLEAR 65 65 100 N5 30.07R NORTH ADAMS FOG 60 60 100 CALM 30.12R VSB 1/4 PITTSFIELD FOG 61 59 93 CALM 30.11S VSB 1/4 $$ RIZALL-251200- RHODE ISLAND CITY SKY/WX TMP DP RH WIND PRES REMARKS PROVIDENCE CLEAR 64 63 96 CALM 30.07R NEWPORT CLEAR 63 63 100 CALM 30.06R BLOCK ISLAND CLEAR 65 62 90 CALM 30.06R SMITHFIELD CLEAR 61 60 97 CALM 30.08R WESTERLY CLEAR 62 60 93 N3 30.06R $$ CTZALL-251200- CONNECTICUT CITY SKY/WX TMP DP RH WIND PRES REMARKS BRADLEY INTL CLEAR 67 65 93 N3 30.06R HARTFORD CLEAR 66 65 96 CALM 30.06R BRIDGEPORT CLEAR 67 65 93 CALM 30.04R DANBURY CLEAR 64 62 93 CALM 30.08R FOG GROTON CLEAR 61 59 93 CALM 30.05R NEW HAVEN CLEAR 67 64 90 CALM 30.04S CHESTER FAIR 63 63 100 N3 30.06S MERIDEN CLEAR 63 62 97 CALM 30.06R WILLIMANTIC CLEAR 63 62 97 CALM 30.07R OXFORD CLEAR 72 65 78 NE8 30.07S $$ MEZ002-015-021-024-NHZ003-005-008-011-012-014-VTZ005-008-251200- NORTHERN NEW ENGLAND CITY SKY/WX TMP DP RH WIND PRES REMARKS PORTLAND ME PTCLDY 64 62 93 CALM 30.07R BANGOR ME PTCLDY 64 62 93 CALM 30.09R FOG CONCORD NH CLEAR 63 61 93 CALM 30.09R FOG MANCHESTER NH PTCLDY 69 66 90 N3 30.06R NASHUA NH CLEAR 66 64 93 CALM 30.08R PORTSMOUTH NH CLEAR 65 65 97 CALM 30.06R JAFFREY NH CLEAR 62 61 96 CALM 30.12R KEENE NH NOT AVBL BURLINGTON VT CLEAR 66 65 96 CALM 30.10R MT. WASHINGTON PTCLDY 56 55 95 N9 N/A $$ NYZ052-076-251200- EASTERN NEW YORK CITY SKY/WX TMP DP RH WIND PRES REMARKS ALBANY PTCLDY 65 63 93 CALM 30.09R NEW YORK CITY PTCLDY 73 66 78 NE6 30.04R $$ ANZALL-251200- MARINE OBSERVATIONS STATION/POSITION TIME TEMP WIND PRES VSBY WAVE AIR SEA DIR/SP/G HT/PER (UTC) (F) (DEG/KT/KT) (MB) (MI) (FT/S) BOSTON BUOY 1050 64 63 180/ 2/ 2 1017.9R 2/10 BUZZARDS BAY 1000 66 140/ 4/ 5 1017.8R NANTUCKET SOUND 1050 61 62 80/ 6/ 6 1017.9R 1/11 MASS BAY-STELLWA 1004 63 61 130/ 4/ 4 1016.7R 3/11 ISLE OF SHOALS 1000 67 340/ 3/ 3 1017.2R S OF BLOCK IS NOT AVBL $$ ......................KEY......................... SKY/WX - SKY CONDITION/PRESENT WEATHER TMP - TEMPERATURE IN FAHRENHEIT DWPT - DEWPOINT IN FAHRENHEIT RH - RELATIVE HUMIDITY IN PERCENT WIND - DIRECTION AND SPEED IN MPH PRES - MEAN SEA LEVEL PRESSURE IN INCHES OF HG WCI - WIND CHILL INDEX VSB - VISIBILITY IN MILES HX - HEAT INDEX TC - TEMPERATURE IN CELSIUS VRB - VARIABLE WIND DIRECTION N/A - NOT AVAILABLE

USA.gov is the U.S. government's official web portal to all federal, state and local government web resources and services.